CDT,Max TemperatureF,Mean TemperatureF,Min TemperatureF,Max Dew PointF,MeanDew PointF,Min DewpointF,Max Humidity, Mean Humidity, Min Humidity, Max Sea Level PressureIn, Mean Sea Level PressureIn, Min Sea Level PressureIn, Max VisibilityMiles, Mean VisibilityMiles, Min VisibilityMiles, Max Wind SpeedMPH, Mean Wind SpeedMPH, Max Gust SpeedMPH,PrecipitationIn, CloudCover, Events, WindDirDegrees
2014-3-1,22,12,2,14,5,-5,86,77,67,30.52,30.32,30.13,10,4,0,25,19,31,0.02,8,Fog-Snow,26
2014-3-2,5,2,-1,-4,-8,-10,75,66,56,30.66,30.60,30.52,10,10,9,23,15,29,0.00,4,,15
2014-3-3,22,8,-6,3,-4,-12,75,58,41,30.66,30.44,30.22,10,10,10,21,10,29,0.00,0,,165
2014-3-4,44,28,12,26,14,1,78,62,45,30.19,30.04,29.93,10,10,7,17,9,22,0.00,0,,176
2014-3-5,33,27,20,24,21,18,92,80,68,30.32,30.23,30.06,10,5,0,20,8,24,0.05,6,Fog-Snow,18
2014-3-6,46,32,17,34,27,15,100,83,65,30.29,30.10,29.85,9,4,0,26,13,34,0.00,4,Fog,173
2014-3-7,49,39,28,37,30,20,96,80,63,30.18,29.94,29.80,10,7,4,25,14,36,0.00,4,,25
2014-3-8,44,34,23,22,17,12,81,55,29,30.39,30.30,30.15,10,10,10,23,12,29,0.00,2,,347
2014-3-9,70,50,30,32,26,14,69,45,20,30.30,30.07,29.86,10,10,10,28,16,36,0.00,0,,217
2014-3-10,78,60,42,32,29,25,57,37,16,29.86,29.75,29.58,10,9,2,18,11,24,0.00,0,,244
2014-3-11,57,45,33,36,32,26,96,64,32,30.15,29.73,29.40,10,9,2,38,18,50,0.02,5,Rain-Snow,360
2014-3-12,58,42,25,32,26,20,92,59,25,30.27,30.19,30.12,10,10,10,29,12,33,0.00,0,,298
2014-3-13,71,50,30,27,20,9,67,35,5,30.11,29.96,29.68,10,10,10,23,11,28,0.00,0,,225
2014-3-14,64,52,40,28,20,15,53,34,15,29.99,29.89,29.67,10,10,10,24,12,30,0.00,0,,289
2014-3-15,74,53,32,29,23,17,70,43,16,30.14,29.87,29.74,10,10,10,35,19,46,0.00,0,,230
2014-3-16,45,36,26,26,18,12,85,56,27,30.38,30.23,30.10,10,10,6,26,14,34,T,4,Snow,26
2014-3-17,65,46,27,29,21,13,63,43,23,30.07,29.69,29.40,10,10,10,30,19,37,0.00,0,,180
2014-3-18,57,45,32,31,29,27,89,63,36,29.89,29.56,29.31,10,8,1,32,15,42,0.01,4,Snow,335
2014-3-19,56,42,28,31,27,22,92,60,27,30.20,30.09,29.91,10,10,9,28,12,36,0.00,3,,290
2014-3-20,72,52,31,24,20,13,69,40,11,30.07,29.92,29.79,10,10,10,22,9,30,0.00,0,,236
2014-3-21,62,48,34,30,25,17,64,42,20,30.26,29.93,29.70,10,10,10,29,16,38,0.00,1,,1
2014-3-22,37,30,22,26,18,6,96,63,29,30.57,30.42,30.26,10,7,2,25,15,31,0.02,6,Snow,12
2014-3-23,42,27,11,19,13,9,92,61,30,30.60,30.47,30.27,10,10,10,16,6,19,0.00,1,,236
2014-3-24,48,36,24,30,24,14,92,62,31,30.31,30.25,30.19,10,5,0,25,10,32,0.10,6,Fog-Snow,359
2014-3-25,44,35,25,21,14,9,69,48,27,30.48,30.33,30.15,10,10,10,20,11,25,0.00,2,,310
2014-3-26,61,46,30,43,31,15,100,68,36,30.13,29.78,29.53,10,8,2,44,26,56,T,4,Rain,172
2014-3-27,59,46,32,51,39,27,100,79,58,29.92,29.53,29.28,10,9,3,31,20,42,0.00,5,Rain,281
2014-3-28,54,40,26,31,27,22,85,65,44,30.24,30.06,29.93,10,10,6,15,5,17,0.01,1,Rain,353
2014-3-29,61,42,22,30,28,22,96,63,29,30.36,30.24,30.05,10,8,2,24,11,33,0.00,1,,221
2014-3-30,78,63,48,37,32,29,50,35,20,30.04,29.80,29.57,10,10,5,40,28,49,0.00,0,,182
2014-3-31,68,50,32,41,31,18,61,42,22,30.05,29.65,29.44,10,10,5,40,25,53,0.00,1,,254